GW1728 Weather Reports


Display with metric or nautical units.
time (UTC)temp
F
wind
direction
speed
MPH
gust
MPH
rain 1hr
in
rain 24hr
in
rain mn
in
humidity
%
barometer
mb
20260510071003 51 220 0.0 1.0 0.00 0.00 0.00 65 1019.7
20260510070459 52 201 4.0 6.0 0.00 0.00 0.00 64 1019.7
20260510065955 50 159 3.0 3.0 0.00 0.00 0.00 67 1019.7
20260510065452 49 45 1.0 1.0 0.00 0.00 0.00 67 1019.6
20260510064948 51 148 1.0 1.0 0.00 0.00 0.00 63 1019.6
20260510064446 52 153 2.0 2.0 0.00 0.00 0.00 63 1019.5
20260510063942 52 163 3.0 3.0 0.00 0.00 0.00 63 1019.7
20260510063438 51 157 2.0 2.0 0.00 0.00 0.00 63 1019.6
20260510062936 50 103 2.0 2.0 0.00 0.00 0.00 64 1019.5
20260510062431 51 80 1.0 2.0 0.00 0.00 0.00 63 1019.6
20260510061926 51 146 1.0 2.0 0.00 0.00 0.00 63 1019.6
20260510061423 51 151 0.0 0.0 0.00 0.00 0.00 63 1019.8
20260510060919 51 151 0.0 0.0 0.00 0.00 0.00 63 1019.7
20260510060416 52 151 0.0 0.0 0.00 0.00 0.00 62 1019.6
20260510055912 52 151 0.0 0.0 0.00 0.00 0.00 61 1019.6
20260510055408 52 150 0.0 0.0 0.00 0.00 0.00 61 1019.5
20260510054901 52 150 0.0 0.0 0.00 0.00 0.00 60 1019.7
20260510054356 53 150 0.0 0.0 0.00 0.00 0.00 59 1019.6
20260510053851 54 149 0.0 0.0 0.00 0.00 0.00 58 1019.7
20260510053347 54 145 1.0 1.0 0.00 0.00 0.00 59 1019.6
20260510052844 54 123 0.0 1.0 0.00 0.00 0.00 59 1019.7
20260510052339 54 113 1.0 1.0 0.00 0.00 0.00 58 1019.7
20260510051836 55 104 1.0 2.0 0.00 0.00 0.00 58 1019.4
20260510051333 56 98 3.0 5.0 0.00 0.00 0.00 56 1019.6
20260510050830 58 165 1.0 1.0 0.00 0.00 0.00 53 1019.7
20260510050326 58 170 3.0 3.0 0.00 0.00 0.00 51 1019.7
20260510045823 58 105 3.0 3.0 0.00 0.00 0.00 53 1019.6
20260510045320 57 90 5.0 7.0 0.00 0.00 0.00 53 1019.6
20260510044817 58 198 2.0 2.0 0.00 0.00 0.00 53 1019.5
20260510044314 59 220 3.0 3.0 0.00 0.00 0.00 52 1019.5
20260510043810 58 223 4.0 5.0 0.00 0.00 0.00 52 1019.5
20260510043306 58 222 4.0 6.0 0.00 0.00 0.00 52 1019.2
20260510042804 59 228 4.0 5.0 0.00 0.00 0.00 51 1019.0
20260510042259 59 240 6.0 7.0 0.00 0.00 0.00 51 1019.4
20260510041756 59 231 6.0 7.0 0.00 0.00 0.00 51 1019.4
20260510041253 59 237 5.0 6.0 0.00 0.00 0.00 50 1019.4
20260510040750 58 239 5.0 6.0 0.00 0.00 0.00 51 1019.4
20260510040242 58 229 3.0 3.0 0.00 0.00 0.00 51 1019.2
20260510035737 58 230 2.0 2.0 0.00 0.00 0.00 50 1019.2
20260510035233 59 227 3.0 3.0 0.00 0.00 0.00 49 1019.2
20260510034729 59 225 3.0 3.0 0.00 0.00 0.00 49 1019.0
20260510034228 59 223 3.0 5.0 0.00 0.00 0.00 48 1019.1
20260510033723 59 219 3.0 3.0 0.00 0.00 0.00 49 1019.0
20260510033221 58 222 3.0 3.0 0.00 0.00 0.00 50 1019.0
20260510032717 58 213 0.0 0.0 0.00 0.00 0.00 51 1019.0
20260510032213 59 212 0.0 0.0 0.00 0.00 0.00 50 1018.9
20260510031708 59 212 0.0 0.0 0.00 0.00 0.00 49 1019.0
20260510031205 60 212 0.0 0.0 0.00 0.00 0.00 48 1018.8
20260510030704 60 212 1.0 2.0 0.00 0.00 0.00 47 1018.7
20260510030202 60 213 1.0 2.0 0.00 0.00 0.00 47 1018.6
20260510025659 61 212 2.0 2.0 0.00 0.00 0.00 45 1018.6
20260510025156 61 218 1.0 2.0 0.00 0.00 0.00 45 1018.4
20260510024653 62 219 2.0 2.0 0.00 0.00 0.00 45 1018.6
20260510024150 62 221 3.0 3.0 0.00 0.00 0.00 44 1018.5
20260510023645 63 226 2.0 2.0 0.00 0.00 0.00 43 1018.4
20260510023143 63 220 3.0 3.0 0.00 0.00 0.00 43 1018.5
20260510022637 64 223 3.0 3.0 0.00 0.00 0.00 42 1018.4
20260510022133 64 223 2.0 2.0 0.00 0.00 0.00 42 1018.4
20260510021628 65 222 3.0 3.0 0.00 0.00 0.00 41 1018.5
20260510021126 65 231 2.0 2.0 0.00 0.00 0.00 41 1018.3
20260510020620 65 240 2.0 2.0 0.00 0.00 0.00 41 1018.3
20260510020115 66 235 3.0 3.0 0.00 0.00 0.00 42 1018.3
20260510015612 66 242 3.0 3.0 0.00 0.00 0.00 42 1018.0
20260510015108 65 252 3.0 3.0 0.00 0.00 0.00 40 1018.3
20260510014604 66 263 0.0 0.0 0.00 0.00 0.00 41 1018.3
20260510014101 66 268 0.0 0.0 0.00 0.00 0.00 41 1018.2
20260510013555 66 272 0.0 0.0 0.00 0.00 0.00 40 1017.9
20260510013052 66 284 0.0 0.0 0.00 0.00 0.00 38 1018.2
20260510012546 67 296 0.0 0.0 0.00 0.00 0.00 38 1018.3
20260510012043 68 292 0.0 1.0 0.00 0.00 0.00 38 1018.2
20260510011542 68 207 3.0 5.0 0.00 0.00 0.00 37 1018.2
20260510011038 68 256 1.0 1.0 0.00 0.00 0.00 36 1018.2
20260510010535 68 234 0.0 0.0 0.00 0.00 0.00 37 1018.3
20260510010032 68 212 1.0 1.0 0.00 0.00 0.00 37 1018.2
20260510005527 68 246 4.0 5.0 0.00 0.00 0.00 37 1018.2
20260510005026 67 272 2.0 2.0 0.00 0.00 0.00 38 1018.3
20260510004523 67 274 1.0 1.0 0.00 0.00 0.00 37 1018.3
20260510004021 67 181 5.0 6.0 0.00 0.00 0.00 38 1018.5
20260510003517 67 210 2.0 2.0 0.00 0.00 0.00 38 1018.3
20260510003013 67 222 2.0 2.0 0.00 0.00 0.00 38 1018.3
20260510002508 68 233 3.0 3.0 0.00 0.00 0.00 38 1018.5
20260510002006 67 217 3.0 3.0 0.00 0.00 0.00 38 1018.3
20260510001503 67 225 2.0 2.0 0.00 0.00 0.00 38 1018.4
20260510001001 67 206 4.0 5.0 0.00 0.00 0.00 38 1018.5
20260510000456 67 234 4.0 6.0 0.00 0.00 0.00 40 1018.5
20260509235953 67 218 3.0 3.0 0.00 0.00 0.00 37 1018.5
20260509235450 67 194 3.0 3.0 0.00 0.00 0.00 37 1018.4
20260509234946 67 237 6.0 7.0 0.00 0.00 0.00 38 1018.3
20260509234443 67 225 4.0 6.0 0.00 0.00 0.00 38 1018.3
20260509233941 67 197 2.0 2.0 0.00 0.00 0.00 38 1018.5
20260509233438 67 249 2.0 2.0 0.00 0.00 0.00 38 1018.3
20260509232934 66 235 1.0 1.0 0.00 0.00 0.00 37 1018.3
20260509232432 66 250 2.0 2.0 0.00 0.00 0.00 37 1018.3
20260509231927 66 230 3.0 3.0 0.00 0.00 0.00 38 1018.5
20260509231424 66 224 2.0 2.0 0.00 0.00 0.00 38 1018.5
20260509230923 66 253 3.0 5.0 0.00 0.00 0.00 38 1018.4
20260509230419 66 234 6.0 7.0 0.00 0.00 0.00 39 1018.5
20260509225914 66 198 4.0 7.0 0.00 0.00 0.00 39 1018.4
20260509225411 66 170 3.0 5.0 0.00 0.00 0.00 38 1018.4
20260509224907 66 199 4.0 5.0 0.00 0.00 0.00 38 1018.4
20260509224402 66 225 3.0 3.0 0.00 0.00 0.00 38 1018.6
20260509223900 66 229 5.0 6.0 0.00 0.00 0.00 38 1018.7
20260509223351 66 235 6.0 7.0 0.00 0.00 0.00 38 1018.5
20260509222848 66 207 4.0 5.0 0.00 0.00 0.00 39 1018.5
20260509222343 68 233 9.0 10.0 0.00 0.00 0.00 39 1018.5
20260509221838 67 222 8.0 9.0 0.00 0.00 0.00 38 1018.5
20260509221336 67 184 1.0 2.0 0.00 0.00 0.00 38 1018.7
20260509220831 66 244 0.0 0.0 0.00 0.00 0.00 40 1018.7
20260509220328 66 245 6.0 7.0 0.00 0.00 0.00 40 1018.7
20260509215823 66 222 2.0 2.0 0.00 0.00 0.00 40 1018.7
20260509215320 66 227 3.0 3.0 0.00 0.00 0.00 41 1018.9
20260509214817 66 244 7.0 9.0 0.00 0.00 0.00 40 1018.9
20260509214314 68 216 9.0 11.0 0.00 0.00 0.00 40 1018.8
20260509213811 67 200 3.0 5.0 0.00 0.00 0.00 40 1018.7
20260509213307 66 68 3.0 3.0 0.00 0.00 0.00 40 1018.9
20260509212804 65 174 5.0 6.0 0.00 0.00 0.00 41 1019.0
20260509212305 65 224 5.0 6.0 0.00 0.00 0.00 42 1019.2
20260509211757 66 222 8.0 8.0 0.00 0.00 0.00 40 1019.2
20260509211253 66 243 7.0 8.0 0.00 0.00 0.00 40 1019.0
20260509210750 67 162 4.0 5.0 0.00 0.00 0.00 40 1019.1
20260509210248 66 160 4.0 5.0 0.00 0.00 0.00 39 1019.1
20260509205747 65 237 6.0 7.0 0.00 0.00 0.00 41 1019.1
20260509205242 65 195 2.0 2.0 0.00 0.00 0.00 40 1019.0
20260509204738 66 193 4.0 6.0 0.00 0.00 0.00 40 1019.2
20260509204235 68 224 7.0 10.0 0.00 0.00 0.00 37 1019.1
20260509203731 67 313 3.0 5.0 0.00 0.00 0.00 39 1019.1
20260509203229 64 235 3.0 3.0 0.00 0.00 0.00 42 1019.1
20260509202725 65 241 5.0 7.0 0.00 0.00 0.00 42 1019.0
20260509202221 66 169 7.0 8.0 0.00 0.00 0.00 40 1019.1
20260509201715 67 225 7.0 9.0 0.00 0.00 0.00 38 1018.8
20260509201212 65 236 7.0 9.0 0.00 0.00 0.00 42 1019.0
20260509200709 66 176 5.0 5.0 0.00 0.00 0.00 39 1019.2
20260509200203 67 247 3.0 3.0 0.00 0.00 0.00 37 1019.0
20260509195659 66 246 4.0 6.0 0.00 0.00 0.00 40 1019.1
20260509195155 66 239 5.0 6.0 0.00 0.00 0.00 40 1019.1
20260509194649 63 223 5.0 6.0 0.00 0.00 0.00 43 1019.1
20260509194146 63 204 4.0 5.0 0.00 0.00 0.00 42 1019.2
20260509193641 63 215 5.0 6.0 0.00 0.00 0.00 43 1019.1
20260509193132 63 225 3.0 3.0 0.00 0.00 0.00 43 1019.4
20260509192629 62 211 7.0 8.0 0.00 0.00 0.00 44 1019.4
20260509192123 62 216 3.0 3.0 0.00 0.00 0.00 44 1019.4
20260509191618 62 235 1.0 1.0 0.00 0.00 0.00 43 1019.4
20260509191115 62 266 1.0 1.0 0.00 0.00 0.00 42 1019.2
20260509190611 62 129 0.0 1.0 0.00 0.00 0.00 42 1019.2
20260509190109 62 227 2.0 2.0 0.00 0.00 0.00 42 1019.4
20260509185606 62 170 0.0 0.0 0.00 0.00 0.00 41 1019.5
20260509185102 62 145 1.0 2.0 0.00 0.00 0.00 42 1019.4
20260509184601 62 214 0.0 0.0 0.00 0.00 0.00 42 1019.4
20260509184057 63 268 2.0 2.0 0.00 0.00 0.00 41 1019.2
20260509183552 62 210 0.0 0.0 0.00 0.00 0.00 41 1019.4
20260509183048 62 208 2.0 2.0 0.00 0.00 0.00 42 1019.2
20260509182545 62 228 2.0 2.0 0.00 0.00 0.00 41 1019.1
20260509182042 62 354 2.0 2.0 0.00 0.00 0.00 42 1019.1
20260509181540 62 324 2.0 2.0 0.00 0.00 0.00 41 1019.0
20260509181037 62 344 2.0 2.0 0.00 0.00 0.00 42 1019.1
20260509180533 62 299 1.0 1.0 0.00 0.00 0.00 42 1019.1
20260509180030 61 355 3.0 3.0 0.00 0.00 0.00 42 1019.0
20260509175525 61 307 1.0 1.0 0.00 0.00 0.00 43 1019.1
20260509175022 61 314 1.0 1.0 0.00 0.00 0.00 43 1018.9
20260509174519 62 2 3.0 5.0 0.00 0.00 0.00 42 1019.0
20260509174014 61 12 4.0 6.0 0.00 0.00 0.00 42 1018.9
20260509173509 62 14 3.0 3.0 0.00 0.00 0.00 42 1018.9
20260509173005 62 221 0.0 0.0 0.00 0.00 0.00 41 1018.9
20260509172503 61 232 0.0 0.0 0.00 0.00 0.00 43 1018.9
20260509171958 61 176 3.0 3.0 0.00 0.00 0.00 43 1018.7
20260509171454 61 173 5.0 6.0 0.00 0.00 0.00 42 1018.7
20260509170951 61 154 6.0 7.0 0.00 0.00 0.00 40 1018.7
20260509170446 61 136 4.0 5.0 0.00 0.00 0.00 40 1018.7
20260509165942 63 210 6.0 7.0 0.00 0.00 0.00 41 1018.5
20260509165441 63 266 1.0 1.0 0.00 0.00 0.00 43 1018.7
20260509164937 62 221 3.0 5.0 0.00 0.00 0.00 46 1018.7
20260509164433 63 355 4.0 5.0 0.00 0.00 0.00 43 1018.6
20260509163929 63 4 3.0 3.0 0.00 0.00 0.00 45 1018.7
20260509163427 63 292 3.0 5.0 0.00 0.00 0.00 46 1018.4
20260509162926 62 275 2.0 3.0 0.00 0.00 0.00 47 1018.6
20260509162425 62 302 1.0 1.0 0.00 0.00 0.00 46 1018.5
20260509161920 62 291 3.0 3.0 0.00 0.00 0.00 47 1018.6
20260509161417 62 312 2.0 3.0 0.00 0.00 0.00 47 1018.5
20260509160912 62 340 4.0 6.0 0.00 0.00 0.00 47 1018.8
20260509160408 62 259 0.0 0.0 0.00 0.00 0.00 49 1018.5
20260509155904 61 256 0.0 1.0 0.00 0.00 0.00 50 1018.4
20260509155401 61 285 1.0 2.0 0.00 0.00 0.00 50 1018.6
20260509154857 61 273 0.0 1.0 0.00 0.00 0.00 49 1018.5
20260509154354 61 265 1.0 1.0 0.00 0.00 0.00 52 1018.3
20260509153850 61 249 2.0 3.0 0.00 0.00 0.00 51 1018.3
20260509153347 61 339 3.0 5.0 0.00 0.00 0.00 51 1018.2
20260509152844 60 291 2.0 2.0 0.00 0.00 0.00 54 1018.3
20260509152340 59 334 2.0 3.0 0.00 0.00 0.00 54 1018.3
20260509151838 59 243 1.0 2.0 0.00 0.00 0.00 54 1018.2
20260509151333 60 304 1.0 1.0 0.00 0.00 0.00 54 1018.3
20260509150832 59 350 2.0 2.0 0.00 0.00 0.00 53 1018.2
20260509150329 59 304 1.0 1.0 0.00 0.00 0.00 56 1017.9
20260509145827 59 277 1.0 1.0 0.00 0.00 0.00 57 1018.0
20260509145321 59 312 2.0 2.0 0.00 0.00 0.00 56 1017.7
20260509144818 58 324 2.0 2.0 0.00 0.00 0.00 58 1017.8
20260509144315 57 234 0.0 0.0 0.00 0.00 0.00 60 1018.3
20260509143812 57 246 0.0 0.0 0.00 0.00 0.00 59 1017.9
20260509143310 57 293 1.0 1.0 0.00 0.00 0.00 60 1017.9
20260509142806 57 284 0.0 0.0 0.00 0.00 0.00 63 1017.9
20260509142302 57 345 4.0 5.0 0.00 0.00 0.00 62 1017.8
20260509141757 57 314 0.0 0.0 0.00 0.00 0.00 62 1017.8
20260509141255 57 272 0.0 1.0 0.00 0.00 0.00 61 1017.7
20260509140751 57 0 2.0 3.0 0.00 0.00 0.00 60 1017.8
20260509140248 58 252 0.0 0.0 0.00 0.00 0.00 60 1017.7
20260509135746 57 250 1.0 1.0 0.00 0.00 0.00 61 1017.5
20260509135244 57 270 1.0 2.0 0.00 0.00 0.00 62 1017.4
20260509134740 56 263 0.0 0.0 0.00 0.00 0.00 65 1017.3
20260509134238 55 270 0.0 0.0 0.00 0.00 0.00 66 1017.3
20260509133735 55 257 0.0 0.0 0.00 0.00 0.00 68 1017.5
20260509133231 54 258 0.0 0.0 0.00 0.00 0.00 68 1017.3
20260509132730 54 252 0.0 0.0 0.00 0.00 0.00 68 1017.3
20260509132228 53 261 0.0 0.0 0.00 0.00 0.00 70 1017.4
20260509131725 53 255 0.0 0.0 0.00 0.00 0.00 69 1017.3
20260509131221 53 266 0.0 0.0 0.00 0.00 0.00 70 1016.9
20260509130717 53 266 0.0 0.0 0.00 0.00 0.00 70 1017.1
20260509130213 53 272 0.0 0.0 0.00 0.00 0.00 69 1016.9
20260509125710 53 269 1.0 1.0 0.00 0.00 0.00 70 1016.8
20260509125207 53 272 0.0 0.0 0.00 0.00 0.00 70 1016.8
20260509124703 53 262 1.0 1.0 0.00 0.00 0.00 71 1016.7
20260509124200 53 272 0.0 0.0 0.00 0.00 0.00 72 1016.5
20260509123659 53 284 2.0 2.0 0.00 0.00 0.00 70 1016.8
20260509123155 53 317 3.0 3.0 0.00 0.00 0.00 70 1016.7
20260509122650 53 310 1.0 2.0 0.00 0.00 0.00 71 1016.8
20260509122148 53 309 2.0 3.0 0.00 0.00 0.00 71 1016.6
20260509121644 53 316 3.0 3.0 0.00 0.00 0.00 71 1016.6
20260509121142 53 301 1.0 1.0 0.00 0.00 0.00 70 1016.7
20260509120640 53 334 2.0 2.0 0.00 0.00 0.00 69 1016.4
20260509120138 53 324 2.0 2.0 0.00 0.00 0.00 68 1016.4
20260509115635 53 301 2.0 2.0 0.00 0.00 0.00 68 1016.3
20260509115133 53 295 2.0 2.0 0.00 0.00 0.00 67 1016.3
20260509114631 53 320 2.0 3.0 0.00 0.00 0.00 69 1016.3
20260509114129 53 325 3.0 3.0 0.00 0.00 0.00 69 1016.1
20260509113627 53 345 3.0 3.0 0.00 0.00 0.00 69 1016.2
20260509113124 53 287 1.0 1.0 0.00 0.00 0.00 68 1016.1
20260509112621 53 298 2.0 2.0 0.00 0.00 0.00 68 1016.0
20260509112118 54 272 1.0 2.0 0.00 0.00 0.00 67 1016.0
20260509111615 54 312 2.0 2.0 0.00 0.00 0.00 66 1015.9
20260509111112 54 337 3.0 5.0 0.00 0.00 0.00 65 1015.5
20260509110609 54 302 1.0 2.0 0.00 0.00 0.00 65 1015.5
20260509110106 54 335 3.0 6.0 0.00 0.00 0.00 65 1015.6
20260509105604 54 353 5.0 7.0 0.00 0.00 0.00 66 1015.5
20260509105101 54 358 4.0 7.0 0.00 0.00 0.00 67 1015.3
20260509104558 54 347 4.0 7.0 0.00 0.00 0.00 67 1015.5
20260509104055 54 276 0.0 1.0 0.00 0.00 0.00 68 1015.4
20260509103553 54 281 1.0 3.0 0.00 0.00 0.00 68 1015.5
20260509103051 54 311 5.0 6.0 0.00 0.00 0.00 69 1015.4
20260509102548 54 348 2.0 2.0 0.00 0.00 0.00 68 1015.3
20260509102045 54 355 4.0 6.0 0.00 0.00 0.00 66 1015.3
20260509101541 54 344 3.0 5.0 0.00 0.00 0.00 65 1015.4
20260509101038 55 325 3.0 3.0 0.00 0.00 0.00 64 1015.2
20260509100535 55 244 2.0 3.0 0.00 0.00 0.00 64 1015.3
20260509100033 55 21 4.0 5.0 0.00 0.00 0.00 64 1015.3
20260509095529 55 318 3.0 3.0 0.00 0.00 0.00 64 1015.3
20260509095026 55 291 5.0 8.0 0.00 0.00 0.00 64 1015.0
20260509094522 55 316 2.0 3.0 0.00 0.00 0.00 63 1015.0
20260509094020 55 335 4.0 5.0 0.00 0.00 0.00 63 1014.9
20260509093518 55 355 3.0 6.0 0.00 0.00 0.00 63 1014.8
20260509093015 55 340 5.0 7.0 0.00 0.00 0.00 63 1014.5
20260509092513 55 325 4.0 7.0 0.00 0.00 0.00 63 1014.6
20260509092012 55 332 3.0 3.0 0.00 0.00 0.00 63 1014.8
20260509091509 55 340 3.0 3.0 0.00 0.00 0.00 63 1014.8
20260509091005 55 291 2.0 2.0 0.00 0.00 0.00 63 1014.6
20260509090502 54 352 4.0 5.0 0.00 0.00 0.00 63 1014.4
20260509090000 54 317 2.0 2.0 0.00 0.00 0.00 63 1014.4
20260509085457 54 348 3.0 3.0 0.00 0.00 0.00 63 1014.3
20260509084953 54 333 2.0 3.0 0.00 0.00 0.00 63 1014.4
20260509084450 54 346 4.0 5.0 0.00 0.00 0.00 63 1014.3
20260509083947 54 307 3.0 3.0 0.00 0.00 0.00 63 1014.0
20260509083444 55 312 1.0 2.0 0.00 0.00 0.00 62 1014.4
20260509082940 55 355 3.0 5.0 0.00 0.00 0.00 62 1014.3
20260509082438 55 356 4.0 6.0 0.00 0.00 0.00 62 1014.0
20260509081935 55 305 4.0 5.0 0.00 0.00 0.00 62 1014.1
20260509081427 55 317 3.0 6.0 0.00 0.00 0.00 62 1014.2
20260509080924 55 303 2.0 3.0 0.00 0.00 0.00 63 1014.2
20260509080422 55 298 2.0 2.0 0.00 0.00 0.00 63 1014.2
20260509075920 55 317 2.0 2.0 0.00 0.00 0.00 63 1013.9
20260509075416 55 300 1.0 1.0 0.00 0.00 0.00 62 1014.1
20260509074914 55 315 1.0 2.0 0.00 0.00 0.00 61 1014.2
20260509074412 55 340 2.0 2.0 0.00 0.00 0.00 61 1014.2
20260509073908 55 292 3.0 3.0 0.00 0.00 0.00 61 1014.1
20260509073404 56 327 3.0 5.0 0.00 0.00 0.00 60 1014.2
20260509072901 56 328 4.0 7.0 0.00 0.00 0.00 59 1014.0
20260509072357 56 317 1.0 2.0 0.00 0.00 0.00 60 1014.3
20260509071854 56 310 7.0 8.0 0.00 0.00 0.00 60 1014.1
20260509071351 56 346 3.0 5.0 0.00 0.00 0.00 59 1014.1